GSAT0209 (GALILEO 12)

Last updated on Sun Apr 12 2026 00:02:39 GMT+0000 (Coordinated Universal Time)

1 41174U 15079A 26101.16813106 .00000062 00000+0 00000+0 0 9991 2 41174 55.7853 103.0984 0005573 326.4988 33.4946 1.70474360 63636
UTC large
Height (km)
Speed (km/s)
/
Latitude / Longitude
Inclination (degrees)
Orbital Period (minutes)
Azimuth
Elevation
Range (km)
Doppler Factor

Next 0 passes for location: London (51.5072 / 0.1276)

Sorry there are no passes over London.
GSAT0209 (GALILEO 12)